EDT,Max TemperatureF,Mean TemperatureF,Min TemperatureF,Max Dew PointF,MeanDew PointF,Min DewpointF,Max Humidity, Mean Humidity, Min Humidity, Max Sea Level PressureIn, Mean Sea Level PressureIn, Min Sea Level PressureIn, Max VisibilityMiles, Mean VisibilityMiles, Min VisibilityMiles, Max Wind SpeedMPH, Mean Wind SpeedMPH, Max Gust SpeedMPH,PrecipitationIn, CloudCover, Events, WindDirDegrees
2013-8-1,50,48,46,50,47,41,100,96,76,,,,0,0,0,36,16,43,0.59,4,Fog-Rain,180
2013-8-2,50,47,44,50,46,41,100,96,76,,,,0,0,0,44,23,54,0.28,7,Fog-Rain,281
2013-8-3,44,42,41,45,43,41,100,100,93,,,,0,0,0,60,36,66,0.24,7,Fog-Rain,285
2013-8-4,42,40,37,43,40,37,100,100,100,,,,0,0,0,56,42,66,0.70,,Fog-Rain,308
2013-8-5,41,36,32,37,35,30,100,96,70,,,,0,0,0,52,43,60,0.15,2,Fog-Rain,308
2013-8-6,50,44,37,43,38,30,100,81,57,,,,0,0,0,28,14,17,0.00,4,Fog,200
2013-8-7,50,46,42,46,43,32,100,91,61,,,,1,0,0,26,11,26,0.00,3,Fog,194
2013-8-8,55,50,46,55,52,46,100,100,100,,,,0,0,0,46,28,54,0.03,,Fog-Rain,250
2013-8-9,55,52,50,55,53,45,100,98,67,,,,5,0,0,53,22,60,4.15,6,Fog-Rain-Thunderstorm,267
2013-8-10,51,44,37,52,41,36,100,95,76,,,,0,0,0,69,57,82,0.16,3,Fog,300
2013-8-11,46,42,37,43,40,37,100,95,81,,,,1,0,0,53,40,43,0.00,6,Fog,299
2013-8-12,50,46,41,46,43,39,100,94,71,,,,3,0,0,33,26,36,0.00,6,Fog,285
2013-8-13,48,46,44,48,46,44,100,100,93,,,,10,0,0,37,24,39,0.40,6,Fog-Rain,247
2013-8-14,46,40,35,46,41,36,100,100,100,,,,0,0,0,68,32,77,0.05,,Fog-Rain,289
2013-8-15,41,37,33,41,38,34,100,100,93,,,,0,0,0,66,45,74,0.00,4,Fog,296
2013-8-16,50,44,39,46,42,36,100,93,71,,,,6,1,0,28,11,21,0.00,6,Fog-Rain,297
2013-8-17,50,44,39,45,39,28,100,85,53,,,,5,1,0,34,26,43,0.00,2,Fog-Rain,294
2013-8-18,51,46,42,48,40,32,100,81,47,,,,0,0,0,31,23,,0.00,6,Fog,281
2013-8-19,51,46,42,52,47,43,100,98,76,,,,0,0,0,48,33,54,0.00,5,Fog,299
2013-8-20,55,50,46,55,47,32,100,86,44,,,,20,6,0,32,17,36,0.00,3,Fog,290
2013-8-21,60,55,50,55,51,46,100,91,72,,,,20,8,0,36,17,32,0.00,3,Fog,274
2013-8-22,59,54,48,55,51,46,100,93,63,,,,20,6,0,53,36,58,0.26,6,Fog-Rain,281
2013-8-23,48,44,39,48,34,3,100,80,18,,,,1,0,0,51,36,61,0.00,4,Fog,337
2013-8-24,51,46,41,41,23,1,87,47,18,,,,,,,22,15,,0.00,1,,347
2013-8-25,55,48,41,45,26,-11,93,52,8,,,,,,,50,17,,0.02,3,,278
2013-8-26,51,46,41,52,49,41,100,100,100,,,,0,0,0,53,44,61,0.66,,Fog-Rain,294
2013-8-27,59,54,50,54,51,46,100,90,72,,,,5,1,0,24,15,,0.00,5,Fog,330
2013-8-28,60,54,48,55,52,48,100,95,82,,,,20,3,0,23,8,,0.13,5,Fog-Rain,323
2013-8-29,51,48,46,52,48,46,100,98,87,,,,0,0,0,23,11,21,0.14,4,Fog-Rain,225
2013-8-30,53,50,46,54,50,46,100,100,98,,,,0,0,0,44,28,55,0.17,6,Fog-Rain,307
2013-8-31,55,52,50,55,53,50,100,100,100,,,,0,0,0,55,33,61,0.20,,Fog-Rain,268